Terminal Aerodrome Forecast
Issued by NWS

Home | Current Version | Previous Version | Text Only | Print | Product List | Glossary Off
Versions: 1 2 3 4 5 6 7 8 9 10 11 12

000
FTUS43 KIWX 192300
TAFSBN
TAF
KSBN 192338Z 2000/2024 33005KT P6SM SCT040
     FM200200 VRB02KT P6SM SKC
      TEMPO 2008/2012 5SM BR=

USA.gov is the U.S. government's official web portal to all federal, state and local government web resources and services.